This is the latest recevied weather packets stored in our database for station/object GJ7DNI-13. If no packets are shown the sender has not sent any weather packets the latest 10 day(s).
| Time | Temp. | Humidity | Pressure | Rain* | Wind** | Luminosity | Snow |
|---|---|---|---|---|---|---|---|
| 1777725604 | 15.56° C | 83% | 1012.2 hPa | 0 mm | - | 366 W/m² | - |
| 1777725303 | 15° C | 83% | 1012.2 hPa | 0 mm | - | 387 W/m² | - |
| 1777725003 | 15.56° C | 84% | 1012.2 hPa | 0 mm | - | 381 W/m² | - |
| 1777724704 | 15° C | 86% | 1012.2 hPa | 0 mm | - | 381 W/m² | - |
| 1777724403 | 14.44° C | 86% | 1012.3 hPa | 0 mm | - | 338 W/m² | - |
| 1777724104 | 15° C | 88% | 1012.3 hPa | 0 mm | - | 267 W/m² | - |
| 1777723804 | 15° C | 88% | 1012.2 hPa | 0 mm | - | 220 W/m² | - |
| 1777723504 | 15° C | 88% | 1012.3 hPa | 0 mm | - | 192 W/m² | - |
| 1777723204 | 15° C | 88% | 1012.3 hPa | 0.25 mm | - | 195 W/m² | - |
| 1777722904 | 14.44° C | 88% | 1012.3 hPa | 0.25 mm | - | 207 W/m² | - |
| 1777722604 | 14.44° C | 88% | 1012.3 hPa | 0.51 mm | - | 213 W/m² | - |
| 1777722304 | 14.44° C | 88% | 1012.3 hPa | 0.76 mm | - | 250 W/m² | - |
| 1777722004 | 13.89° C | 88% | 1012.6 hPa | 1.27 mm | - | 278 W/m² | - |
| 1777721703 | 13.89° C | 88% | 1012.6 hPa | 1.52 mm | - | 271 W/m² | - |
| 1777721404 | 13.89° C | 87% | 1012.6 hPa | 2.03 mm | - | 206 W/m² | - |
| 1777721104 | 13.89° C | 87% | 1012.2 hPa | 2.54 mm | - | 162 W/m² | - |
| 1777720804 | 13.89° C | 87% | 1011.7 hPa | 4.06 mm | - | 142 W/m² | - |
| 1777720504 | 13.89° C | 87% | 1012.4 hPa | 6.86 mm | - | 153 W/m² | - |
| 1777720204 | 13.89° C | 87% | 1013.3 hPa | 6.86 mm | - | 142 W/m² | - |
| 1777719904 | 13.33° C | 87% | 1013.7 hPa | 6.86 mm | - | 144 W/m² | - |
| 1777719604 | 13.33° C | 87% | 1013.9 hPa | 6.6 mm | - | 139 W/m² | - |
| 1777719304 | 13.33° C | 86% | 1014.1 hPa | 6.6 mm | - | 90 W/m² | - |
| 1777719004 | 13.33° C | 86% | 1014.4 hPa | 6.35 mm | - | 60 W/m² | - |
| 1777718704 | 13.33° C | 86% | 1014.6 hPa | 6.1 mm | - | 33 W/m² | - |
| 1777718404 | 13.33° C | 85% | 1014.8 hPa | 5.59 mm | - | 21 W/m² | - |
* Rain latest hour (hover to see other rain measurements)
** Current wind speed in m/s (hover to see current wind gust speed)